QPF
0.00 0.00 0.00 0.00 0.00 0.00 0.00 0.00 0.00 0.00 0.00 0.00 0.00 0.00 0.00 0.00 0.00 0.00 0.00 0.00 0.00 0.00 0.00 0.00 0.00 0.00 0.00 0.00 0.00 0.00 0.00 0.00 0.00 0.00 0.00 0.00 0.00 0.00 0.00 0.00 0.00 0.00 0.00
0.00 0.00 0.00 0.00 0.00 0.00 0.00 0.00 0.00 0.00 0.00 0.00 0.00 0.00 0.00 0.00 0.00 0.00 0.00 0.00 0.00 0.00 0.00 0.00 0.00 0.00 0.00 0.00 0.00 0.00 0.00 0.00 0.00 0.00 0.00 0.00 0.00 0.00 0.00 0.00 0.00 0.00 0.00
0.00 0.00 0.00 0.00 0.00 0.00 0.00 0.00 0.00 0.00 0.00 0.00 0.00 0.00 0.00 0.00 0.00 0.00 0.00 0.00 0.00 0.00 0.00 0.00 0.00 0.00 0.00 0.00 0.00 0.00 0.00 0.00 0.01 0.01 0.01 0.01 0.01 0.01 0.01 0.01 0.01 0.01 0.00
0.00 0.00 0.00 0.00 0.00 0.00 0.00 0.00 0.00 0.00 0.00 0.00 0.00 0.00 0.00 0.00 0.00 0.00 0.00 0.00 0.00 0.00 0.00 0.00 0.00 0.00 0.00 0.00 0.00 0.00 0.00 0.00 0.01 0.01 0.01 0.01 0.01 0.01 0.01 0.01 0.01 0.01 0.01
0.00 0.00 0.00 0.00 0.00 0.00 0.00 0.00 0.00 0.00 0.00 0.00 0.00 0.00 0.00 0.00 0.00 0.00 0.00 0.00 0.00 0.00 0.00 0.00 0.00 0.00 0.00 0.00 0.00 0.00 0.00 0.00 0.00 0.01 0.01 0.01 0.02 0.02 0.02 0.02 0.02 0.02 0.02
0.00 0.00 0.00 0.00 0.00 0.00 0.00 0.00 0.00 0.00 0.00 0.00 0.00 0.00 0.00 0.00 0.00 0.00 0.00 0.00 0.00 0.00 0.00 0.00 0.00 0.00 0.00 0.00 0.00 0.00 0.00 0.00 0.00 0.00 0.01 0.01 0.02 0.03 0.03 0.03 0.03 0.03 0.03
0.00 0.00 0.00 0.00 0.00 0.00 0.00 0.00 0.00 0.00 0.00 0.00 0.00 0.00 0.00 0.00 0.00 0.00 0.00 0.00 0.00 0.00 0.00 0.00 0.00 0.00 0.00 0.00 0.00 0.00 0.00 0.00 0.00 0.00 0.00 0.01 0.02 0.02 0.03 0.04 0.04 0.04 0.04
0.00 0.00 0.00 0.00 0.00 0.00 0.00 0.00 0.00 0.00 0.00 0.00 0.00 0.00 0.00 0.00 0.00 0.00 0.00 0.00 0.00 0.00 0.00 0.00 0.00 0.00 0.00 0.00 0.00 0.00 0.00 0.00 0.00 0.00 0.00 0.01 0.01 0.02 0.03 0.04 0.05 0.06 0.06
0.00 0.00 0.00 0.00 0.00 0.00 0.00 0.00 0.00 0.00 0.00 0.00 0.00 0.00 0.00 0.00 0.00 0.00 0.00 0.00 0.00 0.00 0.00 0.00 0.00 0.00 0.00 0.00 0.00 0.00 0.00 0.00 0.00 0.00 0.00 0.00 0.01 0.01 0.02 0.03 0.05 0.06 0.07
0.00 0.00 0.00 0.00 0.00 0.00 0.00 0.00 0.00 0.00 0.00 0.00 0.00 0.00 0.00 0.00 0.00 0.00 0.00 0.00 0.00 0.00 0.00 0.00 0.00 0.00 0.00 0.00 0.00 0.00 0.00 0.00 0.00 0.00 0.00 0.00 0.00 0.01 0.02 0.03 0.04 0.06 0.07
0.00 0.00 0.00 0.00 0.00 0.00 0.00 0.00 0.00 0.00 0.00 0.00 0.00 0.00 0.00 0.00 0.00 0.00 0.00 0.00 0.00 0.00 0.00 0.00 0.00 0.00 0.00 0.00 0.00 0.00 0.00 0.00 0.00 0.00 0.00 0.00 0.00 0.01 0.01 0.02 0.03 0.05 0.07
0.00 0.00 0.00 0.00 0.00 0.00 0.00 0.00 0.00 0.00 0.00 0.00 0.00 0.00 0.00 0.00 0.00 0.00 0.00 0.00 0.00 0.00 0.00 0.00 0.00 0.00 0.00 0.00 0.00 0.00 0.00 0.00 0.00 0.00 0.00 0.00 0.00 0.00 0.01 0.01 0.02 0.03 0.05
0.00 0.00 0.00 0.00 0.00 0.00 0.00 0.00 0.00 0.00 0.00 0.00 0.00 0.00 0.00 0.00 0.00 0.00 0.00 0.00 0.00 0.00 0.00 0.00 0.00 0.00 0.00 0.00 0.00 0.00 0.00 0.00 0.00 0.00 0.00 0.00 0.00 0.00 0.00 0.01 0.01 0.02 0.03
0.00 0.00 0.00 0.00 0.00 0.00 0.00 0.00 0.00 0.00 0.00 0.00 0.00 0.00 0.00 0.00 0.00 0.00 0.00 0.00 0.00 0.00 0.00 0.00 0.00 0.00 0.00 0.00 0.00 0.00 0.00 0.00 0.00 0.00 0.00 0.00 0.00 0.00 0.01 0.01 0.01 0.01 0.01
0.00 0.00 0.00 0.00 0.00 0.00 0.00 0.00 0.00 0.00 0.00 0.00 0.00 0.00 0.00 0.00 0.00 0.00 0.00 0.00 0.00 0.01 0.00 0.00 0.00 0.00 0.00 0.00 0.00 0.00 0.00 0.00 0.00 0.00 0.00 0.00 0.01 0.01 0.01 0.01 0.01 0.01 0.01
0.00 0.00 0.00 0.00 0.00 0.00 0.00 0.00 0.00 0.00 0.00 0.00 0.00 0.00 0.00 0.00 0.00 0.00 0.00 0.00 0.00 0.01 0.00 0.00 0.00 0.00 0.00 0.00 0.00 0.00 0.00 0.00 0.00 0.00 0.00 0.01 0.01 0.01 0.01 0.01 0.02 0.02 0.02
0.00 0.00 0.00 0.00 0.00 0.00 0.00 0.00 0.00 0.00 0.00 0.00 0.00 0.00 0.00 0.00 0.00 0.00 0.00 0.00 0.00 0.00 0.01 0.00 0.00 0.00 0.00 0.00 0.00 0.00 0.00 0.00 0.00 0.00 0.00 0.01 0.01 0.01 0.01 0.02 0.02 0.02 0.02
0.00 0.00 0.00 0.00 0.00 0.00 0.00 0.00 0.00 0.00 0.00 0.00 0.00 0.00 0.00 0.00 0.00 0.00 0.00 0.00 0.00 0.00 0.01 0.01 0.00 0.00 0.00 0.00 0.00 0.00 0.00 0.00 0.00 0.00 0.00 0.01 0.01 0.01 0.02 0.02 0.02 0.02 0.02
0.00 0.00 0.00 0.00 0.00 0.00 0.00 0.00 0.00 0.00 0.00 0.00 0.00 0.00 0.00 0.00 0.00 0.00 0.00 0.00 0.00 0.00 0.01 0.01 0.01 0.00 0.00 0.00 0.00 0.00 0.00 0.00 0.00 0.00 0.00 0.00 0.01 0.01 0.01 0.02 0.02 0.03 0.03
0.00 0.00 0.00 0.00 0.00 0.00 0.00 0.00 0.00 0.00 0.00 0.00 0.00 0.00 0.00 0.00 0.00 0.00 0.00 0.00 0.01 0.01 0.01 0.02 0.02 0.02 0.01 0.01 0.01 0.01 0.01 0.00 0.00 0.00 0.00 0.00 0.00 0.01 0.01 0.01 0.02 0.02 0.03
0.00 0.00 0.00 0.00 0.00 0.00 0.00 0.00 0.00 0.00 0.00 0.00 0.00 0.00 0.00 0.00 0.01 0.01 0.02 0.02 0.02 0.03 0.03 0.04 0.04 0.03 0.02 0.02 0.01 0.01 0.01 0.01 0.00 0.00 0.00 0.00 0.00 0.00 0.00 0.00 0.01 0.01 0.02
0.00 0.00 0.00 0.00 0.00 0.00 0.00 0.00 0.00 0.00 0.00 0.00 0.00 0.00 0.00 0.00 0.01 0.01 0.02 0.03 0.03 0.03 0.04 0.04 0.04 0.04 0.02 0.02 0.01 0.02 0.02 0.02 0.02 0.00 0.00 0.00 0.00 0.00 0.00 0.00 0.00 0.00 0.01
0.00 0.00 0.00 0.00 0.00 0.00 0.00 0.00 0.00 0.00 0.00 0.00 0.00 0.00 0.00 0.00 0.00 0.00 0.01 0.01 0.01 0.01 0.03 0.03 0.04 0.03 0.02 0.01 0.02 0.03 0.03 0.03 0.02 0.01 0.01 0.01 0.00 0.00 0.00 0.00 0.00 0.00 0.01
0.00 0.00 0.00 0.00 0.00 0.00 0.00 0.00 0.00 0.00 0.00 0.00 0.00 0.00 0.00 0.00 0.00 0.00 0.01 0.01 0.01 0.01 0.01 0.02 0.02 0.01 0.01 0.02 0.02 0.04 0.05 0.06 0.04 0.02 0.01 0.02 0.01 0.00 0.00 0.00 0.00 0.00 0.00
0.00 0.00 0.00 0.00 0.00 0.00 0.00 0.00 0.00 0.00 0.00 0.00 0.00 0.00 0.00 0.00 0.01 0.02 0.02 0.02 0.01 0.01 0.01 0.02 0.03 0.04 0.05 0.06 0.07 0.09 0.10 0.11 0.09 0.03 0.01 0.02 0.01 0.00 0.00 0.00 0.00 0.00 0.00
0.00 0.00 0.00 0.00 0.00 0.00 0.00 0.00 0.00 0.00 0.00 0.00 0.00 0.00 0.01 0.01 0.02 0.03 0.02 0.02 0.02 0.01 0.01 0.01 0.02 0.02 0.02 0.02 0.03 0.04 0.05 0.08 0.08 0.05 0.01 0.01 0.01 0.01 0.02 0.00 0.00 0.00 0.00
MSLP
1022.54 1022.63 1022.64 1022.61 1022.57 1022.54 1022.54 1022.58 1022.63 1022.69 1022.73 1022.74 1022.72 1022.68 1022.63 1022.57 1022.51 1022.44 1022.35 1022.23 1022.07 1021.85 1021.60 1021.32 1021.04 1020.79 1020.59 1020.44 1020.35 1020.29 1020.26 1020.24 1020.22 1020.21 1020.21 1020.22 1020.27 1020.36 1020.48 1020.62 1020.75 1020.87 1020.96
1022.24 1022.27 1022.25 1022.20 1022.15 1022.13 1022.14 1022.19 1022.26 1022.34 1022.39 1022.40 1022.38 1022.33 1022.25 1022.17 1022.09 1022.00 1021.89 1021.77 1021.60 1021.40 1021.15 1020.88 1020.60 1020.34 1020.11 1019.93 1019.79 1019.69 1019.62 1019.57 1019.53 1019.51 1019.50 1019.52 1019.57 1019.66 1019.78 1019.92 1020.06 1020.20 1020.32
1021.95 1021.93 1021.89 1021.83 1021.79 1021.79 1021.83 1021.90 1021.99 1022.07 1022.13 1022.13 1022.10 1022.02 1021.91 1021.80 1021.68 1021.55 1021.43 1021.28 1021.11 1020.91 1020.67 1020.41 1020.13 1019.87 1019.62 1019.42 1019.25 1019.11 1019.00 1018.92 1018.85 1018.80 1018.78 1018.78 1018.81 1018.88 1018.98 1019.10 1019.24 1019.38 1019.51
1021.72 1021.68 1021.61 1021.56 1021.54 1021.57 1021.64 1021.73 1021.83 1021.92 1021.96 1021.95 1021.88 1021.76 1021.61 1021.45 1021.29 1021.12 1020.96 1020.79 1020.60 1020.39 1020.16 1019.91 1019.64 1019.38 1019.14 1018.92 1018.73 1018.57 1018.43 1018.31 1018.21 1018.12 1018.06 1018.02 1018.01 1018.04 1018.10 1018.19 1018.30 1018.42 1018.57
1021.59 1021.53 1021.46 1021.43 1021.43 1021.48 1021.57 1021.68 1021.78 1021.84 1021.86 1021.81 1021.70 1021.54 1021.34 1021.13 1020.91 1020.70 1020.49 1020.29 1020.08 1019.86 1019.63 1019.39 1019.14 1018.90 1018.67 1018.46 1018.26 1018.08 1017.91 1017.76 1017.61 1017.48 1017.36 1017.27 1017.20 1017.17 1017.17 1017.21 1017.28 1017.38 1017.51
1021.58 1021.49 1021.43 1021.41 1021.43 1021.50 1021.59 1021.69 1021.77 1021.81 1021.79 1021.69 1021.54 1021.33 1021.09 1020.82 1020.56 1020.30 1020.05 1019.81 1019.58 1019.35 1019.11 1018.88 1018.65 1018.43 1018.22 1018.02 1017.82 1017.63 1017.44 1017.25 1017.06 1016.87 1016.69 1016.53 1016.40 1016.30 1016.24 1016.22 1016.24 1016.30 1016.40
1021.67 1021.56 1021.49 1021.47 1021.50 1021.57 1021.65 1021.73 1021.77 1021.77 1021.69 1021.56 1021.36 1021.11 1020.83 1020.54 1020.24 1019.94 1019.66 1019.39 1019.12 1018.87 1018.63 1018.40 1018.18 1017.98 1017.79 1017.60 1017.41 1017.21 1017.00 1016.78 1016.54 1016.29 1016.05 1015.82 1015.62 1015.46 1015.33 1015.26 1015.23 1015.25 1015.30
1021.82 1021.69 1021.60 1021.58 1021.60 1021.64 1021.70 1021.73 1021.73 1021.68 1021.56 1021.38 1021.16 1020.89 1020.59 1020.28 1019.96 1019.65 1019.33 1019.02 1018.73 1018.45 1018.19 1017.95 1017.74 1017.55 1017.37 1017.19 1017.00 1016.80 1016.57 1016.30 1016.02 1015.72 1015.42 1015.13 1014.87 1014.66 1014.49 1014.36 1014.29 1014.26 1014.27
1021.99 1021.83 1021.73 1021.68 1021.67 1021.69 1021.70 1021.69 1021.63 1021.53 1021.38 1021.18 1020.94 1020.67 1020.38 1020.07 1019.75 1019.42 1019.08 1018.75 1018.41 1018.10 1017.81 1017.55 1017.32 1017.12 1016.94 1016.77 1016.58 1016.36 1016.11 1015.81 1015.49 1015.14 1014.79 1014.46 1014.17 1013.91 1013.71 1013.55 1013.44 1013.37 1013.34
1022.17 1021.98 1021.85 1021.77 1021.73 1021.69 1021.65 1021.59 1021.49 1021.34 1021.17 1020.96 1020.73 1020.47 1020.21 1019.92 1019.61 1019.27 1018.91 1018.54 1018.16 1017.80 1017.46 1017.17 1016.91 1016.70 1016.50 1016.31 1016.11 1015.87 1015.60 1015.28 1014.92 1014.54 1014.16 1013.81 1013.49 1013.22 1013.00 1012.83 1012.71 1012.61 1012.54
1022.32 1022.11 1021.96 1021.85 1021.76 1021.68 1021.59 1021.46 1021.32 1021.14 1020.95 1020.74 1020.53 1020.30 1020.07 1019.80 1019.50 1019.16 1018.77 1018.36 1017.94 1017.52 1017.13 1016.79 1016.49 1016.24 1016.02 1015.81 1015.59 1015.33 1015.03 1014.69 1014.30 1013.91 1013.52 1013.15 1012.83 1012.57 1012.36 1012.19 1012.06 1011.96 1011.86
1022.45 1022.24 1022.06 1021.92 1021.79 1021.66 1021.51 1021.33 1021.14 1020.94 1020.73 1020.53 1020.34 1020.15 1019.93 1019.69 1019.40 1019.04 1018.63 1018.17 1017.69 1017.22 1016.77 1016.37 1016.03 1015.74 1015.49 1015.25 1015.00 1014.72 1014.40 1014.04 1013.64 1013.24 1012.85 1012.49 1012.18 1011.94 1011.75 1011.60 1011.48 1011.37 1011.26
1022.57 1022.35 1022.17 1022.00 1021.82 1021.64 1021.43 1021.21 1020.97 1020.74 1020.52 1020.32 1020.14 1019.97 1019.77 1019.53 1019.24 1018.86 1018.42 1017.92 1017.38 1016.85 1016.34 1015.89 1015.50 1015.18 1014.89 1014.63 1014.36 1014.06 1013.73 1013.35 1012.95 1012.54 1012.16 1011.82 1011.53 1011.31 1011.15 1011.03 1010.93 1010.82 1010.71
1022.66 1022.45 1022.26 1022.06 1021.85 1021.61 1021.35 1021.07 1020.79 1020.52 1020.29 1020.08 1019.90 1019.72 1019.53 1019.29 1018.97 1018.57 1018.09 1017.54 1016.96 1016.38 1015.83 1015.34 1014.92 1014.56 1014.25 1013.97 1013.68 1013.37 1013.02 1012.63 1012.23 1011.83 1011.46 1011.13 1010.87 1010.68 1010.54 1010.45 1010.36 1010.27 1010.16
1022.72 1022.52 1022.31 1022.08 1021.83 1021.54 1021.22 1020.89 1020.56 1020.26 1019.99 1019.77 1019.57 1019.38 1019.17 1018.90 1018.56 1018.13 1017.61 1017.03 1016.41 1015.80 1015.22 1014.71 1014.27 1013.90 1013.57 1013.28 1012.97 1012.65 1012.29 1011.91 1011.51 1011.11 1010.75 1010.45 1010.20 1010.03 1009.91 1009.83 1009.77 1009.69 1009.58
1022.71 1022.51 1022.29 1022.03 1021.73 1021.39 1021.02 1020.64 1020.27 1019.92 1019.62 1019.36 1019.13 1018.92 1018.67 1018.38 1018.01 1017.55 1017.00 1016.40 1015.76 1015.13 1014.55 1014.03 1013.58 1013.21 1012.88 1012.57 1012.26 1011.93 1011.57 1011.19 1010.79 1010.40 1010.05 1009.76 1009.53 1009.37 1009.26 1009.18 1009.12 1009.05 1008.95
1022.62 1022.41 1022.15 1021.86 1021.52 1021.14 1020.72 1020.29 1019.88 1019.49 1019.15 1018.86 1018.59 1018.34 1018.06 1017.73 1017.33 1016.85 1016.29 1015.68 1015.04 1014.42 1013.84 1013.33 1012.89 1012.51 1012.18 1011.87 1011.56 1011.23 1010.86 1010.48 1010.08 1009.70 1009.36 1009.07 1008.85 1008.69 1008.58 1008.50 1008.43 1008.36 1008.27
1022.42 1022.18 1021.90 1021.57 1021.20 1020.77 1020.32 1019.85 1019.40 1018.98 1018.61 1018.28 1017.98 1017.69 1017.38 1017.02 1016.60 1016.10 1015.53 1014.92 1014.30 1013.69 1013.13 1012.63 1012.20 1011.83 1011.50 1011.19 1010.87 1010.53 1010.16 1009.78 1009.39 1009.02 1008.68 1008.40 1008.17 1008.01 1007.88 1007.79 1007.71 1007.63 1007.53
1022.12 1021.85 1021.53 1021.17 1020.77 1020.31 1019.84 1019.35 1018.87 1018.43 1018.03 1017.67 1017.34 1017.01 1016.67 1016.29 1015.85 1015.35 1014.79 1014.19 1013.59 1013.00 1012.46 1011.97 1011.55 1011.17 1010.84 1010.51 1010.18 1009.83 1009.46 1009.08 1008.70 1008.33 1008.01 1007.73 1007.50 1007.33 1007.19 1007.07 1006.97 1006.87 1006.77
1021.71 1021.41 1021.08 1020.69 1020.27 1019.80 1019.30 1018.80 1018.31 1017.85 1017.43 1017.05 1016.70 1016.35 1015.99 1015.59 1015.14 1014.64 1014.09 1013.51 1012.93 1012.36 1011.84 1011.36 1010.93 1010.54 1010.19 1009.84 1009.49 1009.13 1008.75 1008.37 1008.00 1007.65 1007.33 1007.06 1006.84 1006.65 1006.49 1006.36 1006.23 1006.10 1005.98
1021.24 1020.92 1020.57 1020.17 1019.73 1019.26 1018.76 1018.25 1017.75 1017.29 1016.85 1016.45 1016.07 1015.70 1015.33 1014.92 1014.47 1013.97 1013.44 1012.89 1012.33 1011.78 1011.26 1010.78 1010.34 1009.93 1009.55 1009.17 1008.79 1008.41 1008.02 1007.64 1007.28 1006.94 1006.64 1006.38 1006.16 1005.97 1005.81 1005.65 1005.50 1005.35 1005.21
1020.73 1020.40 1020.04 1019.64 1019.20 1018.72 1018.22 1017.70 1017.20 1016.72 1016.27 1015.85 1015.45 1015.07 1014.68 1014.26 1013.82 1013.34 1012.83 1012.30 1011.76 1011.23 1010.72 1010.24 1009.78 1009.34 1008.92 1008.50 1008.09 1007.68 1007.28 1006.89 1006.54 1006.21 1005.93 1005.69 1005.48 1005.29 1005.12 1004.95 1004.79 1004.62 1004.46
1020.21 1019.88 1019.52 1019.11 1018.67 1018.18 1017.67 1017.15 1016.63 1016.13 1015.66 1015.22 1014.81 1014.40 1014.00 1013.59 1013.15 1012.69 1012.21 1011.71 1011.20 1010.70 1010.20 1009.71 1009.24 1008.77 1008.31 1007.86 1007.41 1006.96 1006.54 1006.14 1005.79 1005.47 1005.20 1004.98 1004.78 1004.61 1004.44 1004.27 1004.10 1003.93 1003.77
1019.68 1019.35 1018.99 1018.58 1018.12 1017.63 1017.10 1016.56 1016.01 1015.49 1014.99 1014.53 1014.09 1013.67 1013.26 1012.85 1012.43 1012.00 1011.56 1011.10 1010.64 1010.16 1009.69 1009.21 1008.73 1008.24 1007.75 1007.25 1006.76 1006.28 1005.83 1005.41 1005.04 1004.73 1004.47 1004.25 1004.07 1003.91 1003.76 1003.61 1003.45 1003.30 1003.15
1019.13 1018.81 1018.43 1018.01 1017.53 1017.01 1016.46 1015.88 1015.31 1014.75 1014.22 1013.73 1013.26 1012.83 1012.42 1012.03 1011.64 1011.25 1010.86 1010.45 1010.05 1009.62 1009.19 1008.73 1008.26 1007.76 1007.25 1006.72 1006.19 1005.67 1005.18 1004.73 1004.34 1004.01 1003.74 1003.52 1003.35 1003.21 1003.08 1002.96 1002.84 1002.72 1002.61
1018.55 1018.21 1017.82 1017.37 1016.87 1016.31 1015.72 1015.11 1014.50 1013.91 1013.35 1012.83 1012.34 1011.91 1011.50 1011.13 1010.78 1010.44 1010.11 1009.78 1009.44 1009.08 1008.70 1008.29 1007.85 1007.36 1006.84 1006.29 1005.73 1005.17 1004.63 1004.13 1003.70 1003.34 1003.04 1002.82 1002.65 1002.52 1002.43 1002.35 1002.27 1002.21 1002.16
Thickness
5643 5640 5637 5635 5632 5630 5628 5625 5624 5622 5620 5619 5618 5616 5615 5614 5614 5613 5613 5612 5612 5612 5612 5613 5614 5614 5615 5615 5615 5615 5615 5615 5615 5615 5615 5615 5615 5615 5615 5615 5615 5615 5616
5639 5636 5633 5630 5628 5625 5623 5621 5619 5616 5615 5613 5612 5611 5610 5609 5608 5607 5607 5606 5606 5605 5606 5606 5607 5608 5608 5608 5609 5609 5609 5609 5609 5609 5610 5610 5610 5609 5609 5609 5609 5609 5609
5635 5632 5628 5625 5623 5621 5619 5616 5613 5611 5609 5608 5607 5606 5605 5604 5603 5602 5602 5601 5601 5600 5600 5600 5600 5600 5601 5601 5602 5602 5602 5603 5603 5603 5603 5604 5604 5604 5604 5604 5603 5603 5603
5630 5627 5623 5620 5618 5615 5613 5610 5607 5605 5603 5601 5600 5600 5599 5598 5598 5597 5597 5596 5595 5595 5594 5593 5593 5593 5593 5593 5594 5594 5595 5595 5596 5596 5597 5597 5598 5598 5598 5598 5598 5598 5597
5625 5621 5618 5615 5612 5609 5606 5604 5601 5598 5596 5594 5594 5594 5593 5592 5592 5592 5591 5591 5590 5589 5588 5587 5585 5585 5585 5585 5585 5586 5586 5587 5587 5588 5589 5590 5591 5591 5592 5592 5592 5592 5592
5618 5615 5612 5609 5606 5602 5599 5596 5594 5591 5589 5587 5587 5588 5587 5587 5587 5586 5585 5585 5584 5582 5581 5580 5578 5577 5576 5576 5576 5577 5577 5578 5579 5579 5580 5581 5583 5584 5585 5586 5586 5587 5587
5611 5608 5605 5602 5598 5595 5591 5588 5585 5583 5580 5578 5576 5577 5580 5581 5580 5580 5578 5576 5575 5574 5572 5570 5569 5568 5567 5566 5565 5566 5567 5568 5569 5570 5571 5572 5573 5575 5576 5578 5579 5580 5581
5604 5601 5597 5594 5590 5586 5583 5579 5576 5573 5570 5567 5564 5563 5565 5569 5569 5571 5568 5566 5564 5562 5561 5559 5557 5556 5555 5554 5554 5553 5554 5555 5557 5558 5560 5561 5562 5564 5566 5568 5570 5572 5573
5596 5592 5589 5585 5582 5578 5574 5570 5567 5563 5560 5557 5552 5548 5547 5551 5553 5559 5559 5557 5553 5550 5548 5546 5544 5543 5542 5542 5541 5541 5541 5542 5543 5545 5547 5548 5550 5552 5554 5556 5559 5561 5563
5587 5584 5580 5577 5573 5569 5565 5561 5558 5554 5550 5546 5542 5538 5536 5535 5533 5542 5545 5544 5542 5539 5537 5534 5532 5530 5529 5528 5527 5527 5528 5528 5530 5531 5533 5534 5536 5538 5540 5542 5544 5547 5550
5578 5575 5571 5567 5563 5559 5555 5552 5548 5544 5540 5536 5533 5529 5525 5521 5518 5517 5528 5530 5528 5526 5524 5522 5520 5518 5516 5514 5513 5513 5513 5513 5514 5516 5517 5518 5520 5521 5523 5525 5527 5530 5533
5568 5565 5562 5558 5554 5550 5546 5542 5539 5535 5530 5527 5523 5518 5514 5510 5507 5503 5507 5513 5514 5515 5513 5510 5507 5504 5501 5499 5497 5496 5496 5496 5496 5497 5498 5499 5501 5503 5504 5506 5508 5511 5514
5557 5554 5551 5547 5543 5540 5537 5533 5529 5525 5521 5516 5512 5509 5505 5501 5498 5494 5493 5497 5499 5501 5499 5497 5493 5488 5485 5482 5480 5477 5477 5476 5476 5477 5478 5479 5480 5482 5484 5485 5487 5490 5493
5548 5545 5541 5537 5534 5530 5526 5523 5519 5515 5511 5506 5502 5498 5494 5490 5485 5480 5476 5475 5480 5485 5481 5479 5475 5470 5466 5462 5459 5457 5456 5454 5455 5455 5456 5457 5458 5459 5461 5463 5465 5468 5470
5540 5536 5532 5528 5524 5520 5516 5512 5508 5504 5500 5495 5491 5486 5482 5478 5473 5467 5462 5456 5452 5459 5467 5463 5454 5451 5445 5442 5439 5437 5435 5434 5433 5434 5434 5435 5436 5438 5440 5441 5443 5445 5448
5530 5525 5522 5518 5514 5510 5506 5501 5497 5493 5488 5484 5479 5474 5469 5465 5459 5453 5447 5441 5435 5432 5440 5444 5434 5429 5425 5423 5420 5418 5416 5415 5415 5414 5415 5416 5417 5418 5420 5422 5423 5425 5428
5519 5515 5511 5507 5503 5499 5495 5490 5486 5482 5477 5472 5467 5462 5457 5451 5445 5439 5432 5426 5420 5413 5416 5425 5416 5411 5406 5403 5402 5400 5399 5398 5398 5397 5398 5400 5401 5402 5404 5405 5407 5409 5411
5509 5505 5501 5496 5492 5488 5484 5479 5474 5470 5465 5460 5455 5449 5443 5437 5431 5424 5417 5411 5405 5399 5396 5402 5402 5395 5391 5388 5386 5385 5384 5384 5384 5384 5384 5386 5387 5389 5390 5392 5394 5395 5397
5499 5494 5490 5485 5481 5477 5473 5468 5463 5458 5453 5447 5441 5435 5429 5422 5417 5410 5403 5396 5391 5387 5382 5382 5386 5382 5379 5375 5373 5372 5371 5371 5371 5371 5372 5374 5375 5377 5378 5380 5382 5383 5385
5488 5484 5479 5474 5470 5466 5461 5456 5451 5446 5441 5435 5428 5422 5415 5408 5402 5395 5389 5384 5378 5374 5370 5368 5370 5369 5366 5363 5359 5359 5360 5359 5359 5359 5360 5362 5363 5365 5367 5368 5370 5372 5373
5478 5473 5468 5464 5458 5453 5449 5444 5440 5435 5429 5423 5417 5409 5402 5395 5389 5383 5378 5372 5366 5362 5358 5356 5356 5356 5354 5350 5347 5346 5348 5349 5350 5349 5350 5351 5351 5353 5354 5355 5357 5359 5362
5468 5462 5457 5452 5447 5442 5438 5434 5429 5424 5417 5410 5404 5397 5389 5382 5375 5370 5365 5360 5355 5350 5346 5343 5343 5342 5342 5338 5337 5336 5336 5338 5342 5341 5339 5342 5341 5343 5344 5345 5347 5350 5352
5457 5452 5446 5441 5436 5431 5426 5422 5417 5412 5405 5397 5389 5382 5376 5369 5362 5356 5352 5348 5343 5338 5335 5332 5332 5331 5330 5330 5327 5327 5327 5328 5331 5332 5329 5334 5334 5335 5337 5338 5340 5343 5345
5446 5441 5436 5431 5425 5420 5414 5410 5405 5399 5391 5383 5375 5367 5360 5355 5347 5342 5340 5337 5333 5329 5325 5323 5322 5323 5322 5322 5320 5320 5321 5322 5325 5325 5323 5327 5328 5329 5331 5332 5333 5336 5338
5437 5431 5426 5420 5413 5408 5402 5397 5391 5385 5378 5370 5362 5354 5346 5341 5338 5333 5330 5328 5326 5323 5320 5319 5319 5319 5319 5317 5316 5315 5314 5314 5319 5320 5318 5318 5321 5322 5324 5326 5327 5329 5331
5427 5421 5416 5408 5401 5396 5390 5383 5376 5370 5364 5358 5351 5343 5336 5331 5328 5324 5320 5317 5317 5316 5314 5313 5312 5310 5309 5308 5308 5306 5305 5306 5309 5312 5312 5311 5313 5312 5317 5320 5320 5321 5323